This is the latest recevied weather packets stored in our database for station/object HASTNG-WX. If no packets are shown the sender has not sent any weather packets the latest 10 day(s).
| Time | Temp. | Humidity | Pressure | Rain* | Wind** | Luminosity | Snow |
|---|---|---|---|---|---|---|---|
| 1778101260 | 11.67° C | 31% | 984.6 hPa | 0 mm | - | - | - |
| 1778100331 | 11.67° C | 33% | 984.3 hPa | 0 mm | - | - | - |
| 1778099450 | 11.67° C | 34% | 983.8 hPa | 0 mm | - | - | - |
| 1778098535 | 11.67° C | 34% | 983.8 hPa | 0 mm | - | - | - |
| 1778097661 | 11.67° C | 33% | 983.3 hPa | 0 mm | - | - | - |
| 1778096736 | 11.67° C | 34% | 983.8 hPa | 0 mm | - | - | - |
| 1778095852 | 11.67° C | 34% | 983.8 hPa | 0 mm | - | - | - |
| 1778094935 | 12.22° C | 34% | 983.8 hPa | 0 mm | - | - | - |
| 1778094058 | 11.67° C | 34% | 983.8 hPa | 0 mm | - | - | - |
| 1778093135 | 11.67° C | 35% | 983.5 hPa | 0 mm | - | - | - |
| 1778092246 | 12.22° C | 34% | 983.4 hPa | 0 mm | - | - | - |
| 1778091334 | 12.22° C | 34% | 983.4 hPa | 0 mm | - | - | - |
| 1778090462 | 12.22° C | 34% | 983.4 hPa | 0 mm | - | - | - |
| 1778089532 | 11.67° C | 37% | 983.7 hPa | 0 mm | - | - | - |
| 1778088652 | 11.67° C | 35% | 984.3 hPa | 0 mm | - | - | - |
| 1778087735 | 11.67° C | 35% | 984.4 hPa | 0 mm | - | - | - |
| 1778086861 | 11.67° C | 37% | 984.5 hPa | 0 mm | - | - | - |
| 1778085935 | 11.11° C | 41% | 983.7 hPa | 0 mm | - | - | - |
| 1778085048 | 10.56° C | 41% | 983.6 hPa | 0 mm | - | - | - |
| 1778084135 | 10.56° C | 41% | 983.6 hPa | 0 mm | - | - | - |
| 1778083261 | 10.56° C | 41% | 983.6 hPa | 0 mm | - | - | - |
| 1778082334 | 10° C | 47% | 984.3 hPa | 0 mm | - | - | - |
| 1778081448 | 9.44° C | 48% | 983.6 hPa | 0 mm | - | - | - |
| 1778080535 | 9.44° C | 48% | 983.6 hPa | 0 mm | - | - | - |
| 1778079665 | 8.89° C | 48% | 983.6 hPa | 0 mm | - | - | - |
* Rain latest hour (hover to see other rain measurements)
** Current wind speed in m/s (hover to see current wind gust speed)